Skip Page Navigation
NASA JPL Caltech
NASA Logo - Jet Propulsion Laboratory + View the NASA Portal
+ Center for Near-Earth Object Studies
JPL Home Earth Solar System Stars & Galaxies Technology
JPL Solar System Dynamics
BODIES ORBITS EPHEMERIDES TOOLS PHYSICAL DATA DISCOVERY FAQ SITE MAP
JPL Small-Body Database Browser
Search: [ help ]  
1690 Mayrhofer (1948 VB)
Classification: Main-belt Asteroid          SPK-ID: 2001690
Ephemeris | Orbit Diagram | Orbital Elements | Mission Design | Physical Parameters | Discovery Circumstances ]

[ show orbit diagram ]
Orbital Elements at Epoch 2459000.5 (2020-May-31.0) TDB
Reference: JPL 33 (heliocentric ecliptic J2000)
 Element Value Uncertainty (1-sigma)   Units 
e .09830205558102363 3.6301e-08  
a 3.037081863241407 1.311e-08 au
q 2.738530473116932 1.1062e-07 au
i 13.04896130656273 4.2668e-06 deg
node 230.4502783285207 1.4265e-05 deg
peri 155.9343705824519 2.3576e-05 deg
M 210.9496581602218 2.0689e-05 deg
tp 2459800.912108508847
(2022-Aug-09.41210851)
0.00011406 TDB
period 1933.228434812517
5.29
1.2518e-05
3.427e-08
d
yr
n .186217000286835 1.2058e-09 deg/d
Q 3.335633253365883 1.4399e-08 au
  Orbit Determination Parameters
   # obs. used (total)      2777  
   data-arc span      31977 days (87.55 yr)  
   first obs. used      1932-11-28  
   last obs. used      2020-06-16  
   planetary ephem.      DE431  
   SB-pert. ephem.      SB431-N16  
   condition code      0  
   norm. resid. RMS      .42455  
   source      ORB  
   producer      Otto Matic  
   solution date      2020-Jun-23 15:35:30  

Additional Information
 Earth MOID = 1.74966 au 
 Jupiter MOID = 2.09789 au 
 T_jup = 3.195 
[ show covariance matrix ]

Ephemeris | Orbit Diagram | Orbital Elements | Mission Design | Physical Parameters | Discovery Circumstances ]

Physical Parameter Table
Parameter Symbol Value Units Sigma Reference Notes
absolute magnitude H 11.1   n/a MPO344310  
diameter diameter 33.810 km 1.378 urn:nasa:pds:neowise_diameters_albedos::2.0[mainbelt] (http://adsabs.harvard.edu/abs/2012ApJ...759L...8M)  
rotation period rot_per 22.194 h n/a LCDB (Rev. 2019-August); Warner et al., 2009 Result based on less than full coverage, so that the period may be wrong by 30 percent or so.
Published Reference List:
[Behrend, R. (2006) Observatoire de Geneve web site, http://obswww.unige.ch/~behrend/page_cou.html]
geometric albedo albedo 0.056   0.012 urn:nasa:pds:neowise_diameters_albedos::2.0[mainbelt] (http://adsabs.harvard.edu/abs/2012ApJ...759L...8M)  

1690 Mayrhofer           Discovered 1948 Nov. 8 by M. Laugier at Nice.
Named in honor of Karl Mayrhofer, Austrian astronomer, currently living at Ried im Innkreis, well known for his orbit computations on minor planets. Name proposed by O. Kippes, who found some of the identifications involving this planet.
NOTE: some special characters may not display properly (any characters within {} are an attempt to place the proper accent above a character)
Reference: MPC 5523Last Updated: 2006-03-21

Alternate Designations
 1948 VB = 1932 WN = 1953 VC2 = 1956 GN 
Ephemeris | Orbit Diagram | Orbital Elements | Mission Design | Physical Parameters | Discovery Circumstances ]
ABOUT SSD CREDITS/AWARDS PRIVACY/COPYRIGHT GLOSSARY LINKS
FirstGov 2020-Aug-08 19:33 UT
(server date/time)  
NASA Home Page
Site Manager:   Ryan S. Park
Webmaster  Alan B. Chamberlin